Location: Melbourne
(37.8666°S, 145.1333°E)
Time: 20:19:35
(UTC+10:00)

Daily predictions for brighter satellites

Satellite Brightness Start Highest point End
(mag) Time Altitude Azimuth Time Altitude Azimuth Time Altitude Azimuth
Cosmos 1553 Rocket 4.0 17:46:12 10° N 17:52:14 75° E 17:58:25 10° S
IRS-1A Rocket 4.4 17:47:00 10° SSE 17:52:47 68° ENE 17:58:23 10° N
Cosmos 1933 Rocket 3.6 17:50:41 10° S 17:55:15 81° E 17:59:45 10° N
Cosmos 1470 Rocket 3.6 17:52:34 10° S 17:56:59 89° E 18:01:20 10° N
COBE Rocket 4.4 17:54:56 10° S 17:59:49 64° WSW 18:04:32 10° NNW
Cosmos 2360 Rocket 3.3 17:57:02 10° NW 18:02:30 47° WSW 18:08:00 10° S
Cosmos 2056 Rocket 4.1 18:00:54 10° S 18:05:58 38° ESE 18:10:56 10° NE
Cosmos 1437 Rocket 4.2 18:04:02 10° NNW 18:08:01 44° WSW 18:12:01 10° S
Cosmos 1371 Rocket 4.2 18:02:53 10° S 18:08:13 54° ESE 18:13:29 10° NE
IDEFIX/ARIANE 42P 3.7 18:04:58 10° SE 18:09:14 24° E 18:13:26 10° NNE
Cosmos 1626 2.7 18:05:58 10° SSW 18:09:47 66° W 18:13:32 10° N
Cosmos 1980 4.5 18:04:52 10° NNE 18:09:48 32° ENE 18:14:48 10° SE
Cosmos 1300 3.5 18:08:39 10° NNE 18:12:05 31° E 18:15:35 10° SSE
COSMO-SKYMED 1 4.2 18:08:08 10° NNW 18:12:13 39° W 18:16:23 10° SSW
Cosmos 292 Rocket 3.9 18:08:55 10° N 18:13:39 58° ENE 18:18:29 10° SSE
Cosmos 2237 Rocket 3.0 18:09:33 10° NNE 18:14:28 31° ENE 18:19:25 10° SE
Meteor 1-29 2.9 18:13:12 10° NNE 18:16:39 75° ESE 18:20:10 10° S
DELTA 2 R/B (1) 3.6 18:12:43 10° WNW 18:18:20 82° NNE 18:23:06 15° ESE
Cosmos 1707 Rocket 4.2 18:14:58 10° NNE 18:19:05 36° E 18:23:12 10° SSE
CZ-2C R/B 2.7 18:24:14 10° SSE 18:28:36 39° E 18:32:53 10° NNE
Lacrosse 5 rocket 2.0 18:29:11 10° SSW 18:33:40 43° SE 18:36:53 17° ENE
Cosmos 2333 Rocket 2.3 18:28:23 10° N 18:33:57 55° ENE 18:39:32 10° SSE
COSMOS 2455 3.8 18:30:54 10° NNE 18:35:51 27° ENE 18:38:35 20° ESE
Helios 1B rocket 3.6 18:32:18 10° N 18:36:19 47° W 18:40:23 10° SSW
Cosmos 1356 Rocket 4.5 18:34:48 10° SSE 18:37:45 23° ESE 18:37:45 23° ESE
AQUARIUS 4.1 18:33:44 10° SSE 18:38:19 77° ENE 18:42:51 10° N
Lacrosse 4 Rocket 1.8 18:36:47 10° N 18:40:57 45° ENE 18:43:18 23° SE
Cosmos 2278 Rocket 2.6 18:36:31 10° S 18:41:55 41° ESE 18:47:16 10° NE
SJ-12 3.9 18:38:41 10° SSE 18:42:54 82° ENE 18:47:01 10° N
CORIOLIS 4.1 18:37:24 10° SSE 18:42:54 68° ENE 18:48:21 10° N
Cosmos 2219 Rocket 2.2 18:39:20 10° NNW 18:45:01 88° WSW 18:50:48 10° SSE
Cosmos 1624 Rocket 4.0 18:39:58 10° SSW 18:45:15 86° WNW 18:50:29 10° NNE
SMAP 3.0 18:41:04 10° SSE 18:45:50 89° ENE 18:50:30 10° NNW
Cosmos 1844 3.6 18:40:12 10° SSW 18:45:51 69° ESE 18:51:29 10° NNE
Cosmos 1271 Rocket 2.9 18:42:23 10° N 18:46:17 53° E 18:49:32 14° SSE
COSMOS 2428 3.9 18:41:57 10° NW 18:47:24 43° WSW 18:52:55 10° S
PAYLOAD A 4.0 18:42:38 10° S 18:47:42 82° WSW 18:52:31 10° NNW
Cosmos 1340 Rocket 3.0 18:44:53 10° S 18:48:44 45° ESE 18:52:32 10° NNE
Cosmos 1844 Rocket 2.8 18:43:57 10° SSW 18:49:41 83° WNW 18:55:22 10° NNE
Lacrosse 5 2.2 18:45:06 10° SSW 18:50:04 47° SE 18:52:37 26° ENE
CZ-4 R/B 4.4 18:49:57 10° SSE 18:54:10 87° WSW 18:58:20 10° NNW
Tiangong 1 3.5 18:53:26 10° N 18:54:24 13° NNE 18:54:24 13° NNE
Cosmos 1484 Rocket 3.6 18:55:39 33° ENE 18:55:39 33° ENE 18:59:04 10° NNE
USA 234 3.9 18:49:07 10° NNE 18:55:30 56° NW 19:01:57 10° SW
SAR-Lupe-4 3.8 18:55:45 42° ESE 18:56:20 47° E 18:59:48 10° N
Cosmos 1900 4.2 18:51:49 10° NNW 18:56:40 70° ENE 18:59:29 25° SE
Iridium 2 4.4 18:55:59 10° SSW 18:59:50 57° W 19:03:39 10° NNW
Meteor 2-3 Rocket 3.7 18:59:30 10° S 19:05:24 81° E 19:11:08 10° N
Cosmos 192 4.2 19:02:17 10° N 19:07:15 76° ENE 19:10:18 24° SSE
YAOGAN 1 3.8 19:03:28 10° S 19:07:39 43° WSW 19:11:46 10° NW
ATLAS 3B R/B 3.0 19:02:28 10° N 19:08:11 37° ENE 19:09:17 34° E
Cosmos 1452 Rocket 3.5 19:03:55 10° S 19:09:10 59° ESE 19:14:22 10° NNE
Cosmos 1869 Rocket 4.2 19:05:10 10° SSW 19:09:40 59° W 19:14:04 10° N
Cosmos 2315 Rocket 4.2 19:04:03 10° NNW 19:10:24 74° W 19:16:54 10° S
CZ-4 R/B 3.7 19:08:41 10° SSW 19:11:52 23° WSW 19:15:01 10° WNW
Cosmos 2297 4.2 19:09:36 10° S 19:14:35 38° SE 19:14:35 38° SE
Cosmos 2184 Rocket 4.1 19:10:08 10° S 19:16:15 49° E 19:22:14 10° NNE
Meteor 1-4 Rocket 3.6 19:14:25 10° NNW 19:17:52 44° WSW 19:20:41 15° S
SL-16 R/B 2.2 19:23:23 10° N 19:28:58 60° ENE 19:29:25 58° E
Cosmos 1726 4.1 19:26:05 10° NW 19:29:23 29° WSW 19:32:43 10° SSW
MSX 3.7 19:25:51 10° SSE 19:31:43 89° ENE 19:37:31 10° NNW
DEBRIS 4.4 19:38:22 10° WNW 19:42:41 86° SW 19:48:11 35° SE
IDEFIX/ARIANE 42P 3.9 19:43:58 10° S 19:48:54 39° WSW 19:53:47 10° NW
Cosmos 2074 Rocket 4.0 19:42:46 10° S 19:49:11 86° W 19:55:30 10° N
USA 32 4.2 19:47:54 10° N 19:53:08 70° W 19:54:21 52° SSW
Nadezhda 1 Rocket 3.9 19:46:46 10° N 19:53:12 83° E 19:54:21 63° SSE
Cosmos 1269 Rocket 4.2 19:52:39 10° NNW 19:57:42 68° W 19:57:42 68° W
Cosmos 2237 Rocket 3.7 19:53:20 10° NW 19:58:25 34° WSW 20:01:49 19° S
DELTA 2 R/B (1) 4.0 19:59:20 10° W 20:03:53 57° WSW 20:03:53 57° WSW
Lacrosse 5 rocket 3.6 20:08:58 10° WSW 20:12:42 25° WNW 20:12:42 25° WNW
Cosmos 2333 Rocket 4.4 20:14:16 10° WNW 20:18:33 21° SW 20:21:48 14° SSW
Lacrosse 4 Rocket 4.0 20:17:00 10° W 20:19:43 17° SW 20:19:43 17° SW
COSMOS 2455 3.7 20:15:45 10° NW 20:21:29 45° WSW 20:21:49 44° SW
Cosmos 2278 Rocket 4.2 20:21:08 10° SW 20:25:43 25° WNW 20:30:17 10° NNW
Lacrosse 5 3.9 20:28:33 10° WSW 20:31:53 25° WNW 20:31:53 25° WNW
ATLAS 3B R/B 4.0 20:52:50 10° WNW 20:56:37 31° W 20:56:37 31° W
